TimeMDT,TemperatureF,Dew PointF,Humidity,Sea Level PressureIn,VisibilityMPH,Wind Direction,Wind SpeedMPH,Gust SpeedMPH,PrecipitationIn,Events,Conditions,WindDirDegrees,DateUTC
1:55 AM,39.0,35.1,86,29.89,10.0,West,4.6,-,N/A,,Clear,280,2013-04-26 07:55:00
2:55 AM,39.0,36.0,89,29.88,10.0,NW,5.8,-,N/A,,Clear,310,2013-04-26 08:55:00
3:55 AM,39.0,35.1,86,29.89,10.0,West,4.6,-,N/A,,Clear,280,2013-04-26 09:55:00
4:55 AM,41.0,34.0,76,29.91,10.0,NW,4.6,-,N/A,,Clear,310,2013-04-26 10:55:00
5:55 AM,37.9,28.9,70,29.95,10.0,North,11.5,-,N/A,,Clear,350,2013-04-26 11:55:00
6:55 AM,41.0,28.0,60,29.97,10.0,NNW,11.5,-,N/A,,Clear,340,2013-04-26 12:55:00
7:55 AM,50.0,26.1,39,30.00,10.0,NNW,16.1,20.7,N/A,,Clear,330,2013-04-26 13:55:00
8:55 AM,54.0,25.0,33,30.01,10.0,NNW,19.6,-,N/A,,Clear,340,2013-04-26 14:55:00
9:55 AM,57.0,21.9,26,30.01,10.0,North,20.7,25.3,N/A,,Clear,350,2013-04-26 15:55:00
10:55 AM,60.1,23.0,24,30.05,10.0,North,25.3,29.9,N/A,,Clear,350,2013-04-26 16:55:00
11:55 AM,62.1,21.0,21,30.07,10.0,North,18.4,25.3,N/A,,Clear,10,2013-04-26 17:55:00
12:55 PM,64.0,19.0,18,30.06,10.0,North,18.4,24.2,N/A,,Clear,10,2013-04-26 18:55:00
1:48 PM,66.2,17.6,15,30.16,10.0,North,16.1,21.9,N/A,,Clear,350,2013-04-26 19:48:00
1:55 PM,66.9,15.1,14,30.05,10.0,NNE,18.4,25.3,N/A,,Clear,20,2013-04-26 19:55:00
2:02 PM,66.2,14.0,13,30.16,10.0,North,16.1,25.3,N/A,,Clear,350,2013-04-26 20:02:00
2:55 PM,64.9,15.1,15,30.06,10.0,NNE,13.8,24.2,N/A,,Clear,30,2013-04-26 20:55:00
3:55 PM,66.0,14.0,13,30.06,10.0,NE,15.0,23.0,N/A,,Mostly Cloudy,40,2013-04-26 21:55:00
4:55 PM,64.9,12.0,13,30.06,10.0,NNW,12.7,-,N/A,,Partly Cloudy,340,2013-04-26 22:55:00
5:55 PM,64.0,12.9,14,30.08,10.0,NE,10.4,-,N/A,,Clear,40,2013-04-26 23:55:00
6:55 PM,61.0,17.1,18,30.09,10.0,NNE,12.7,-,N/A,,Clear,20,2013-04-27 00:55:00
7:55 PM,48.9,24.1,38,30.12,10.0,NNE,9.2,-,N/A,,Clear,30,2013-04-27 01:55:00
8:55 PM,43.0,25.0,49,30.16,10.0,North,8.1,-,N/A,,Clear,360,2013-04-27 02:55:00
9:55 PM,43.0,25.0,49,30.16,10.0,Calm,Calm,-,N/A,,Clear,0,2013-04-27 03:55:00
10:55 PM,39.0,27.0,62,30.16,10.0,Calm,Calm,-,N/A,,Clear,0,2013-04-27 04:55:00
11:55 PM,36.0,26.1,67,30.17,10.0,Calm,Calm,-,N/A,,Clear,0,2013-04-27 05:55:00